Weather History for KBKD - July, 2013

Change the Weather History Date:

Thursday, July 4, 2013

  Actual Average (KABI) Record (KABI)
Temperature  
Mean Temperature 84 °F 82 °F  
Max Temperature 97 °F 93 °F 103 °F (1971)
Min Temperature 72 °F 71 °F 58 °F (1924)
Degree Days  
Heating Degree Days 0 0  
Month to date heating degree days 0  
Since 1 June heating degree days 1  
Since 1 July heating degree days 0  
Cooling Degree Days 20 17  
Month to date cooling degree days 68  
Year to date cooling degree days 900  
Since 1 June cooling degree days 503  
Growing Degree Days 34 (Base 50)    
Moisture  
Dew Point 47 °F    
Average Humidity 29    
Maximum Humidity 53    
Minimum Humidity 15    
Precipitation  
Precipitation 0.00 in 0.07 in 1.41 in (2002)
Month to date precipitation 0.28  
Year to date precipitation 12.78  
Sea Level Pressure  
Sea Level Pressure 29.95 in    
Wind  
Wind Speed 7 mph (SSE)    
Max Wind Speed 14 mph    
Max Gust Speed 17 mph    
Visibility 10 miles    
Events Rain    
T = Trace of Precipitation, MM = Missing Value Source: NWS Daily Summary

Daily Weather History Graph

Daily Weather History Graph

Search for Another Location

Airport or City:

Trip Planner

Search our weather history database for the weather conditions in past years. The results will help you decide how hot, cold, wet, or windy it might be!

Date:

Astronomy

Jul. 04, 2013 Rise Set
Actual Time 6:32 AM CDT 8:47 PM CDT
Civil Twilight 6:04 AM CDT 9:15 PM CDT
Nautical Twilight 5:29 AM CDT 9:50 PM CDT
Astronomical Twilight 4:52 AM CDT 10:27 PM CDT
Moon 3:46 AM CDT (7/4) 5:56 PM CDT (7/4)
Length of Visible Light 15h 11m
Length of Day
14h 14m
Waning Crescent, 11% of the Moon is Illuminated
Jul 4
Waning Crescent
Jul 8
New
Jul 15
First Quarter
Jul 22
Full
Jul 29
Last Quarter

Hourly Weather History & Observations

Time (CDT) Temp. Heat Index Dew Point Humidity Pressure Visibility Wind Dir Wind Speed Gust Speed Precip Events Conditions
12:15 AM 76.1 °F - 43.0 °F 31% 29.98 in 10.0 mi SE 9.2 mph - N/A   Clear
12:35 AM 76.6 °F - 43.0 °F 30% 29.99 in 10.0 mi SE 8.1 mph - N/A   Clear
12:55 AM 75.9 °F - 43.0 °F 31% 29.98 in 10.0 mi SE 8.1 mph - N/A   Clear
1:15 AM 76.1 °F - 43.2 °F 31% 29.98 in 10.0 mi SE 8.1 mph - N/A   Clear
1:35 AM 75.7 °F - 43.7 °F 32% 29.98 in 10.0 mi SE 8.1 mph - N/A   Clear
1:55 AM 76.1 °F - 44.1 °F 32% 29.98 in 10.0 mi SE 9.2 mph - N/A   Clear
2:15 AM 76.5 °F - 44.6 °F 32% 29.97 in 10.0 mi SE 10.4 mph - N/A   Clear
2:35 AM 75.7 °F - 44.6 °F 33% 29.97 in 10.0 mi SE 10.4 mph - N/A   Clear
2:55 AM 76.1 °F - 45.0 °F 33% 29.97 in 10.0 mi SE 11.5 mph - N/A   Clear
3:15 AM 76.1 °F - 45.5 °F 34% 29.96 in 10.0 mi SE 10.4 mph - N/A   Clear
3:35 AM 75.7 °F - 45.7 °F 34% 29.96 in 10.0 mi SE 11.5 mph - N/A   Clear
3:55 AM 75.6 °F - 46.4 °F 35% 29.96 in 10.0 mi SE 10.4 mph - N/A   Clear
4:15 AM 75.4 °F - 47.3 °F 37% 29.97 in 10.0 mi SE 4.6 mph - N/A   Scattered Clouds
4:35 AM 75.6 °F - 49.3 °F 39% 29.99 in 10.0 mi WNW 8.1 mph - N/A Rain Light Rain
4:55 AM 73.2 °F - 52.7 °F 48% 29.99 in 10.0 mi Calm Calm - N/A   Light Drizzle
5:15 AM 72.9 °F - 53.4 °F 50% 29.98 in 10.0 mi SW 3.5 mph - N/A   Scattered Clouds
5:35 AM 72.1 °F - 52.3 °F 50% 29.98 in 10.0 mi SSW 8.1 mph - N/A   Clear
5:55 AM 73.2 °F - 52.7 °F 48% 29.97 in 10.0 mi SSE 8.1 mph - N/A   Scattered Clouds
6:15 AM 72.3 °F - 53.6 °F 52% 29.98 in 10.0 mi SSE 8.1 mph - N/A   Mostly Cloudy
6:35 AM 72.5 °F - 54.1 °F 52% 29.98 in 10.0 mi SSE 6.9 mph - N/A   Mostly Cloudy
6:55 AM 72.3 °F - 54.1 °F 53% 29.98 in 10.0 mi SSE 5.8 mph - N/A   Scattered Clouds
7:15 AM 73.0 °F - 54.7 °F 52% 29.98 in 10.0 mi SSE 5.8 mph - N/A   Clear
7:35 AM 73.4 °F - 55.0 °F 52% 29.99 in 10.0 mi Calm Calm - N/A   Clear
7:55 AM 73.4 °F - 55.0 °F 52% 29.99 in 10.0 mi Calm Calm - N/A   Scattered Clouds
8:15 AM 73.9 °F - 55.9 °F 53% 30.00 in 10.0 mi Calm Calm - N/A   Scattered Clouds
8:35 AM 75.2 °F - 55.9 °F 51% 30.01 in 10.0 mi Calm Calm - N/A   Clear
8:55 AM 75.4 °F - 55.4 °F 50% 30.01 in 10.0 mi Calm Calm - N/A   Clear
9:15 AM 76.1 °F - 55.6 °F 49% 30.01 in 10.0 mi Calm Calm - N/A   Clear
9:35 AM 76.6 °F - 55.2 °F 47% 30.01 in 10.0 mi SE 5.8 mph - N/A   Clear
9:55 AM 77.7 °F - 56.3 °F 48% 30.01 in 10.0 mi SSE 4.6 mph - N/A   Clear
10:15 AM 81.1 °F 80.9 °F 55.2 °F 41% 30.00 in 10.0 mi SE 5.8 mph - N/A   Clear
10:35 AM 85.1 °F 83.5 °F 53.4 °F 34% 30.00 in 10.0 mi SE 5.8 mph - N/A   Clear
10:55 AM 87.3 °F - 51.4 °F 29% 29.99 in 7.0 mi SSE 8.1 mph - N/A   Clear
11:15 AM 89.1 °F - 49.3 °F 25% 29.99 in 7.0 mi SSE 9.2 mph - N/A   Clear
11:35 AM 91.4 °F - 46.6 °F 21% 29.99 in 10.0 mi SW 10.4 mph - N/A   Clear
11:55 AM 91.6 °F - 44.8 °F 20% 29.98 in 7.0 mi South 6.9 mph - N/A   Clear
12:15 PM 91.6 °F - 44.2 °F 19% 29.98 in 10.0 mi South 6.9 mph - N/A   Clear
12:35 PM 93.0 °F - 44.6 °F 19% 29.98 in 10.0 mi South 9.2 mph - N/A   Clear
12:55 PM 92.5 °F - 44.1 °F 19% 29.97 in 10.0 mi Calm Calm - N/A   Clear
1:15 PM 90.9 °F - 43.5 °F 19% 29.96 in 10.0 mi SW 5.8 mph - N/A   Mostly Cloudy
1:35 PM 91.8 °F - 43.0 °F 18% 29.96 in 10.0 mi Calm Calm - N/A   Scattered Clouds
1:55 PM 92.5 °F - 42.1 °F 17% 29.95 in 10.0 mi Calm Calm - N/A   Scattered Clouds
2:15 PM 93.7 °F - 44.4 °F 18% 29.94 in 10.0 mi WSW 3.5 mph - N/A   Scattered Clouds
2:35 PM 95.2 °F - 43.5 °F 17% 29.94 in 10.0 mi Calm Calm - N/A   Scattered Clouds
2:55 PM 94.8 °F - 43.3 °F 17% 29.93 in 10.0 mi South 5.8 mph - N/A   Scattered Clouds
3:15 PM 94.8 °F - 41.9 °F 16% 29.92 in 10.0 mi SE 4.6 mph - N/A   Scattered Clouds
3:35 PM 97.0 °F - 43.2 °F 16% 29.92 in 10.0 mi SSW 10.4 mph - N/A   Clear
3:55 PM 95.2 °F - 41.7 °F 16% 29.91 in 10.0 mi South 3.5 mph - N/A   Clear
4:15 PM 96.4 °F - 42.4 °F 16% 29.90 in 10.0 mi SSW 5.8 mph - N/A   Clear
4:35 PM 96.4 °F - 41.2 °F 15% 29.89 in 10.0 mi South 3.5 mph - N/A   Clear
4:55 PM 97.3 °F - 41.7 °F 15% 29.89 in 7.0 mi SW 4.6 mph - N/A   Clear
5:15 PM 96.4 °F - 41.0 °F 15% 29.88 in 7.0 mi SSE 6.9 mph - N/A   Scattered Clouds
5:35 PM 95.2 °F - 41.4 °F 15% 29.88 in 7.0 mi SE 8.1 mph - N/A   Mostly Cloudy
5:55 PM 96.1 °F - 41.7 °F 15% 29.88 in 10.0 mi SSE 8.1 mph - N/A   Scattered Clouds
6:15 PM 94.8 °F - 41.7 °F 16% 29.88 in 10.0 mi SSE 9.2 mph - N/A   Scattered Clouds
6:35 PM 95.9 °F - 41.5 °F 15% 29.87 in 10.0 mi SE 13.8 mph - N/A   Mostly Cloudy
6:55 PM 93.7 °F - 41.0 °F 16% 29.88 in 10.0 mi ESE 11.5 mph 17.3 mph N/A   Mostly Cloudy
7:15 PM 92.8 °F - 41.2 °F 17% 29.88 in 10.0 mi SE 10.4 mph 16.1 mph N/A   Scattered Clouds
7:35 PM 92.3 °F - 41.2 °F 17% 29.88 in 10.0 mi SE 9.2 mph - N/A   Scattered Clouds
7:55 PM 91.6 °F - 41.7 °F 18% 29.88 in 10.0 mi SSE 9.2 mph - N/A   Scattered Clouds
8:15 PM 90.5 °F - 42.1 °F 18% 29.88 in 10.0 mi SSE 8.1 mph - N/A   Scattered Clouds
8:35 PM 89.6 °F - 43.0 °F 20% 29.88 in 10.0 mi SSE 8.1 mph - N/A   Mostly Cloudy
8:55 PM 88.9 °F - 43.2 °F 20% 29.89 in 10.0 mi SE 8.1 mph - N/A   Mostly Cloudy
9:15 PM 88.5 °F - 43.3 °F 21% 29.89 in 10.0 mi SE 5.8 mph - N/A   Overcast
9:35 PM 87.4 °F - 43.5 °F 22% 29.90 in 10.0 mi ESE 8.1 mph - N/A   Overcast
9:55 PM 88.2 °F - 43.5 °F 21% 29.91 in 10.0 mi SE 6.9 mph - N/A   Mostly Cloudy
10:15 PM 86.9 °F - 43.9 °F 22% 29.91 in 10.0 mi SE 8.1 mph - N/A   Mostly Cloudy
10:35 PM 85.8 °F - 44.4 °F 23% 29.93 in 10.0 mi SE 8.1 mph - N/A   Scattered Clouds
10:55 PM 84.6 °F - 45.0 °F 25% 29.93 in 10.0 mi SE 6.9 mph - N/A   Clear
11:15 PM 84.0 °F - 46.2 °F 27% 29.94 in 10.0 mi SE 8.1 mph - N/A   Clear
11:35 PM 82.8 °F - 47.3 °F 29% 29.94 in 10.0 mi SE 8.1 mph - N/A   Scattered Clouds
11:55 PM 82.8 °F - 48.0 °F 30% 29.94 in 10.0 mi SSE 10.4 mph - N/A   Scattered Clouds